F1IQH-13 Weather Reports


time (UTC)temp
C
wind
direction
speed
KPH
gust
KPH
rain 1hr
cm
rain 24hr
cm
rain mn
cm
humidity
%
barometer
mb
20260902113332 25 270 8.0 14.5 0.00 0.00 0.00 50 1021.5
20260902112333 25 263 6.4 12.9 0.00 0.00 0.00 52 1021.6
20260902111334 25 258 4.8 11.3 0.00 0.00 0.00 53 1021.7
20260902110333 25 258 4.8 11.3 0.00 0.00 0.00 53 1021.7
20260902105334 24 250 4.8 9.7 0.00 0.00 0.00 54 1021.8
20260902104333 23 234 3.2 8.0 0.00 0.00 0.00 56 1022.0
20260902103334 23 234 3.2 8.0 0.00 0.00 0.00 56 1022.0
20260902102333 23 241 3.2 8.0 0.00 0.00 0.00 59 1021.8
20260902101333 22 238 3.2 8.0 0.00 0.00 0.00 61 1021.9
20260902100333 22 238 3.2 8.0 0.00 0.00 0.00 61 1021.9
20260902095333 22 236 3.2 8.0 0.00 0.00 0.00 63 1022.0
20260902094333 21 248 1.6 6.4 0.00 0.00 0.00 66 1022.1
20260902093333 21 248 1.6 6.4 0.00 0.00 0.00 66 1022.1
20260902092333 21 270 1.6 6.4 0.00 0.00 0.00 69 1022.2
20260902091332 20 297 0.0 6.4 0.00 0.00 0.00 71 1022.3
20260902090332 20 297 0.0 6.4 0.00 0.00 0.00 71 1022.3
20260902085334 19 315 0.0 6.4 0.00 0.00 0.00 73 1022.3
20260902084333 18 270 0.0 6.4 0.00 0.00 0.00 75 1022.2
20260902083333 18 270 0.0 6.4 0.00 0.00 0.00 75 1022.2
20260902082333 18 225 1.6 4.8 0.00 0.00 0.00 76 1022.3
20260902081334 17 214 1.6 4.8 0.00 0.00 0.00 78 1022.2
20260902080334 17 214 1.6 4.8 0.00 0.00 0.00 78 1022.2
20260902075334 16 198 1.6 4.8 0.00 0.00 0.00 80 1022.2
20260902074333 16 162 1.6 4.8 0.00 0.00 0.00 83 1022.2
20260902073333 16 162 1.6 4.8 0.00 0.00 0.00 83 1022.2
20260902072333 15 124 1.6 6.4 0.00 0.00 0.00 86 1022.1
20260902071333 14 101 1.6 6.4 0.00 0.00 0.00 88 1022.1
20260902070334 14 101 1.6 6.4 0.00 0.00 0.00 88 1022.1
20260902065333 13 81 1.6 6.4 0.00 0.00 0.00 90 1022.0
20260902064332 12 69 3.2 6.4 0.00 0.00 0.00 92 1022.0
20260902063333 12 69 3.2 6.4 0.00 0.00 0.00 92 1022.0
20260902062332 12 61 3.2 6.4 0.00 0.00 0.00 94 1021.9
20260902061332 11 59 4.8 6.4 0.00 0.00 0.00 96 1021.8
20260902060333 11 59 4.8 6.4 0.00 0.00 0.00 96 1021.8
20260902055333 11 66 4.8 6.4 0.00 0.00 0.00 97 1021.7
20260902054333 11 76 4.8 8.0 0.00 0.00 0.00 98 1021.5
20260902053332 11 76 4.8 8.0 0.00 0.00 0.00 98 1021.5
20260902052332 10 86 4.8 8.0 0.00 0.00 0.00 99 1021.3
20260902051333 10 94 4.8 8.0 0.00 0.00 0.00 99 1021.2
20260902050333 10 94 4.8 8.0 0.00 0.00 0.00 99 1021.2
20260902045333 10 99 4.8 6.4 0.00 0.00 0.00 100 1021.2
20260902044334 10 100 3.2 6.4 0.00 0.00 0.00 99 1021.5
20260902043333 10 100 3.2 6.4 0.00 0.00 0.00 99 1021.5
20260902042334 10 101 3.2 4.8 0.00 0.00 0.00 99 1021.6
20260902041334 11 96 3.2 4.8 0.00 0.00 0.00 98 1021.6
20260902040333 11 96 3.2 4.8 0.00 0.00 0.00 98 1021.6
20260902035333 11 90 3.2 4.8 0.00 0.00 0.00 97 1021.6
20260902034332 11 53 1.6 6.4 0.00 0.00 0.00 96 1021.5
20260902033332 11 53 1.6 6.4 0.00 0.00 0.00 96 1021.5
20260902032332 11 22 1.6 6.4 0.00 0.00 0.00 95 1021.4
20260902031333 12 9 1.6 8.0 0.00 0.00 0.00 94 1021.4
20260902030332 12 9 1.6 8.0 0.00 0.00 0.00 94 1021.4
20260902025332 12 18 1.6 8.0 0.00 0.00 0.00 94 1021.4
20260902024333 12 40 3.2 8.0 0.00 0.00 0.00 94 1021.4
20260902023333 12 40 3.2 8.0 0.00 0.00 0.00 94 1021.4
20260902022333 12 56 3.2 8.0 0.00 0.00 0.00 94 1021.4
20260902021333 12 66 4.8 6.4 0.00 0.00 0.00 94 1021.4
20260902020332 12 66 4.8 6.4 0.00 0.00 0.00 94 1021.4
20260902015333 12 72 4.8 6.4 0.00 0.00 0.00 94 1021.4
20260902014332 12 81 4.8 6.4 0.00 0.00 0.00 95 1021.3
20260902013333 12 81 4.8 6.4 0.00 0.00 0.00 95 1021.3
20260902012332 12 73 3.2 6.4 0.00 0.00 0.00 94 1021.3
20260902011332 12 80 3.2 6.4 0.00 0.00 0.00 94 1021.3
20260902010333 12 80 3.2 6.4 0.00 0.00 0.00 94 1021.3
20260902005333 12 80 3.2 6.4 0.00 0.00 0.00 93 1021.2
20260902004332 13 85 3.2 6.4 0.00 0.00 0.00 92 1021.2
20260902003332 13 85 3.2 6.4 0.00 0.00 0.00 92 1021.2
20260902002334 13 79 3.2 4.8 0.00 0.00 0.00 91 1021.1
20260902001334 13 77 3.2 4.8 0.00 0.00 0.00 90 1021.1
20260902000334 13 77 3.2 4.8 0.00 0.00 0.00 90 1021.1
20260901235334 13 69 3.2 4.8 0.00 0.00 0.00 88 1021.1
20260901234334 14 50 3.2 6.4 0.00 0.00 0.00 87 1021.2
20260901233334 14 50 3.2 6.4 0.00 0.00 0.00 87 1021.2
20260901232333 14 30 3.2 6.4 0.00 0.00 0.00 85 1021.3
20260901231333 15 27 3.2 6.4 0.00 0.00 0.00 83 1021.3
20260901230334 15 27 3.2 6.4 0.00 0.00 0.00 83 1021.3
20260901225333 15 32 3.2 8.0 0.00 0.00 0.00 82 1021.3
20260901224333 15 45 3.2 8.0 0.00 0.00 0.00 80 1021.2
20260901223334 15 45 3.2 8.0 0.00 0.00 0.00 80 1021.2
20260901222333 15 65 4.8 8.0 0.00 0.00 0.00 79 1020.8
20260901221334 15 70 4.8 8.0 0.00 0.00 0.00 77 1020.8
20260901220334 15 70 4.8 8.0 0.00 0.00 0.00 77 1020.8
20260901215333 16 75 4.8 8.0 0.00 0.00 0.00 76 1020.8
20260901214333 16 83 6.4 8.0 0.00 0.00 0.00 75 1020.7
20260901213334 16 83 6.4 8.0 0.00 0.00 0.00 75 1020.7
20260901212334 16 86 6.4 9.7 0.00 0.00 0.00 73 1020.7
20260901211334 16 90 6.4 9.7 0.00 0.00 0.00 72 1020.7
20260901210333 16 90 6.4 9.7 0.00 0.00 0.00 72 1020.7
20260901205333 17 90 6.4 9.7 0.00 0.00 0.00 71 1020.7
20260901204333 17 90 4.8 9.7 0.00 0.00 0.00 69 1020.7
20260901203334 17 90 4.8 9.7 0.00 0.00 0.00 69 1020.7
20260901202333 17 86 4.8 9.7 0.00 0.00 0.00 68 1020.6
20260901201334 18 86 4.8 9.7 0.00 0.00 0.00 66 1020.6
20260901200335 18 86 4.8 9.7 0.00 0.00 0.00 66 1020.6
20260901195333 18 86 4.8 9.7 0.00 0.00 0.00 65 1020.6
20260901194335 18 90 4.8 9.7 0.00 0.00 0.00 63 1020.5
20260901193333 19 86 4.8 8.0 0.00 0.00 0.00 61 1020.6
20260901192333 20 86 4.8 8.0 0.00 0.00 0.00 61 1020.4
20260901191334 20 86 4.8 8.0 0.00 0.00 0.00 59 1020.3
20260901190334 20 86 4.8 8.0 0.00 0.00 0.00 59 1020.3
20260901185334 21 75 4.8 6.4 0.00 0.00 0.00 56 1020.1
20260901184334 22 58 3.2 6.4 0.00 0.00 0.00 53 1019.9
20260901183334 22 58 3.2 6.4 0.00 0.00 0.00 53 1019.9
20260901182333 23 36 3.2 4.8 0.00 0.00 0.00 50 1019.7
20260901181333 23 21 3.2 4.8 0.00 0.00 0.00 47 1019.6
20260901180333 23 21 3.2 4.8 0.00 0.00 0.00 47 1019.6
20260901175333 24 8 3.2 3.2 0.00 0.00 0.00 45 1019.5
20260901174334 24 0 1.6 3.2 0.00 0.00 0.00 43 1019.5
20260901173334 24 0 1.6 3.2 0.00 0.00 0.00 43 1019.5
20260901172333 25 346 1.6 3.2 0.00 0.00 0.00 41 1019.5
20260901171334 25 315 1.6 3.2 0.00 0.00 0.00 40 1019.5
20260901170339 25 315 1.6 3.2 0.00 0.00 0.00 40 1019.5
20260901165338 25 288 1.6 3.2 0.00 0.00 0.00 39 1019.5
20260901164333 25 256 1.6 4.8 0.00 0.00 0.00 39 1019.5
20260901163335 25 79 4.8 8.0 0.00 0.00 0.00 39 1019.5
20260901162334 25 82 4.8 8.0 0.00 0.00 0.00 36 1019.8
20260901161334 25 86 4.8 8.0 0.00 0.00 0.00 36 1019.9
20260901160334 25 86 4.8 8.0 0.00 0.00 0.00 36 1019.9
20260901155333 26 85 3.2 8.0 0.00 0.00 0.00 36 1020.0
20260901154334 26 72 3.2 8.0 0.00 0.00 0.00 36 1020.0
20260901153333 26 72 3.2 8.0 0.00 0.00 0.00 36 1020.0
20260901152333 26 60 3.2 8.0 0.00 0.00 0.00 36 1020.1
20260901151333 26 45 3.2 8.0 0.00 0.00 0.00 36 1020.2
20260901150334 26 45 3.2 8.0 0.00 0.00 0.00 36 1020.2
20260901145333 26 40 3.2 8.0 0.00 0.00 0.00 36 1020.3
20260901144334 26 40 3.2 9.7 0.00 0.00 0.00 36 1020.5
20260901143333 26 40 3.2 9.7 0.00 0.00 0.00 36 1020.5
20260901142334 26 36 3.2 9.7 0.00 0.00 0.00 36 1020.6
20260901141333 26 23 3.2 9.7 0.00 0.00 0.00 36 1020.7
20260901140333 26 23 3.2 9.7 0.00 0.00 0.00 36 1020.7
20260901135334 25 337 3.2 9.7 0.00 0.00 0.00 37 1020.7
20260901134333 25 302 4.8 9.7 0.00 0.00 0.00 38 1020.7
20260901133332 25 324 3.2 11.3 0.00 0.00 0.00 37 1020.9
20260901132333 25 45 1.6 9.7 0.00 0.00 0.00 37 1021.0
20260901131334 25 108 1.6 9.7 0.00 0.00 0.00 38 1021.0
20260901130333 25 108 1.6 9.7 0.00 0.00 0.00 38 1021.0
20260901125333 25 90 1.6 9.7 0.00 0.00 0.00 39 1021.1
20260901124334 25 346 1.6 9.7 0.00 0.00 0.00 39 1021.2
20260901123333 25 346 1.6 9.7 0.00 0.00 0.00 39 1021.2
20260901122334 25 329 4.8 9.7 0.00 0.00 0.00 40 1021.4
20260901121333 25 320 4.8 9.7 0.00 0.00 0.00 41 1021.5
20260901120333 25 320 4.8 9.7 0.00 0.00 0.00 41 1021.5
20260901115334 24 312 4.8 9.7 0.00 0.00 0.00 42 1021.6
20260901114333 24 299 4.8 9.7 0.00 0.00 0.00 43 1021.8